SL-12 R/B(AUX MOTOR), 15335

Orbit data source: Space-Track

SL-12 R/B(AUX MOTOR), 15335 is space debris in LEO originally from a launch on Fri, 28 Sep 1984 UTC launched from the Tyuratam Missile And Space Complex (TTMTR). Debris objects in space refer to the collection of defunct objects orbiting the Earth. Examples of debris include non-operational satellites, rocket bodies, and fragments generated from explosions, collisions, or faulty payload assembly.

Loading next visibility...
Identifier
15335, 1984-106C
Orbit
LEO
Country
Flag of CISCIS
Related business
Manufacturer
NPO Energiya
Mission
Spacecraft
Bus & Motor
SOZ, Unknown motor
Mass
110 kg wet, 56 kg dry
Launch date (UTC)
1984-09-28 (41 years ago)
Launch vehicle
Unknown
Launch site
Tyuratam Missile And Space Complex (TTMTR)
Object type
Payload
Rocket body
Debris
Shape & HBR
Unknown
Radar Cross Section
Medium (>0.1 m² and <1 m²)

Expand to show TLE details & history
Last TLE update: 2 days ago

TLE from 2 days ago
0 SL-12 R/B(AUX MOTOR)
1 15335U 84106C   25306.17187391  .00000231  00000-0  14018-3 0  9992
2 15335  66.5519 219.5638 0012892 348.4247 119.3079 14.23048143131846
Epoch: 2025-11-02T04:07Z
TLE epoch observation values (Epoch: 2025-11-02T04:07:29.905Z)
Latitude
60.94975°
Longitude
-114.96461°
Altitude
829.154 km
Speed
7.442 km/s
True Right ascension
23h 14m 24s
True Declination
60° 48' 18"
Sunlit
Object was in full shadow at epoch
Visualization orbit readout
Latitude
Unknown
Longitude
Unknown
Altitude
Unknown
Speed
Unknown
Apparent Right ascension
Unknown
Apparent Declination
Unknown
Sunlit
N/A
Visualization observer readout
Local Sidereal Time
17:11:18
Azimuth
Unknown
Elevation
Unknown
Doppler factor
Unknown
Orbital elements
Apogee altitude
822.732 km
Perigee altitude
804.189 km
Semi-major axis
7,191.597 km
Eccentricity
0.00129
Inclination
66.5519°
RAAN
219.5638°
Arg. of periapsis
348.4247°
True anomaly
119.43662°
Mean anomaly
119.3079°
Eccentric anomaly
119.37227°
Mean motion
3.55881 °/min
Orbital period
101.16 mins
BSTAR
0.00014018
Loading maneuver chart data...
Computing Atmospheric mass density...
Loading historical data...
Loading historical data...
Loading historical data...
Loading historical data...
Loading historical data...
Loading historical data...
Loading historical data...

Documentation

Showing up to 5 results
|